GW7040 Weather Reports


time (UTC)temp
C
wind
direction
speed
KPH
gust
KPH
rain 1hr
cm
rain 24hr
cm
rain mn
cm
humidity
%
barometer
mb
20260506004412 22 123 0.0 1.6 0.00 0.00 0.00 65 1006.0
20260506003908 22 112 0.0 0.0 0.00 0.00 0.00 65 1006.0
20260506003404 22 108 0.0 0.0 0.00 0.00 0.00 64 1006.1
20260506002901 22 126 1.6 3.2 0.00 0.00 0.00 64 1005.9
20260506002357 23 158 1.6 1.6 0.00 0.00 0.00 64 1005.8
20260506001853 23 116 1.6 1.6 0.00 0.00 0.00 64 1005.6
20260506001350 23 140 1.6 1.6 0.00 0.00 0.00 64 1005.6
20260506000847 23 119 1.6 1.6 0.00 0.00 0.00 64 1005.4
20260506000346 24 136 3.2 3.2 0.00 0.00 0.00 64 1005.4
20260505235841 25 49 4.8 6.4 0.00 0.00 0.00 62 1005.2
20260505235339 25 117 1.6 1.6 0.00 0.00 0.00 62 1005.3
20260505234836 25 177 4.8 6.4 0.00 0.00 0.00 61 1005.1
20260505234334 25 138 1.6 1.6 0.00 0.00 0.00 60 1005.0
20260505233830 26 121 0.0 0.0 0.00 0.00 0.00 60 1004.8
20260505233328 26 129 1.6 1.6 0.00 0.00 0.00 59 1004.7
20260505232825 26 139 1.6 1.6 0.00 0.00 0.00 57 1004.8
20260505232323 26 85 3.2 3.2 0.00 0.00 0.00 57 1005.1
20260505231820 27 165 3.2 3.2 0.00 0.00 0.00 57 1004.9
20260505231318 27 110 1.6 1.6 0.00 0.00 0.00 56 1004.7
20260505230816 28 116 0.0 0.0 0.00 0.00 0.00 55 1004.7
20260505230312 28 136 1.6 1.6 0.00 0.00 0.00 54 1004.3
20260505225808 28 140 1.6 3.2 0.00 0.00 0.00 52 1004.4
20260505225306 29 111 1.6 1.6 0.00 0.00 0.00 48 1004.0
20260505224801 30 81 3.2 3.2 0.00 0.00 0.00 46 1004.2
20260505224259 30 126 1.6 1.6 0.00 0.00 0.00 45 1004.4
20260505223756 31 100 1.6 1.6 0.00 0.00 0.00 42 1004.3
20260505223253 31 64 3.2 3.2 0.00 0.00 0.00 40 1004.1
20260505222748 31 168 1.6 3.2 0.00 0.00 0.00 41 1003.9
20260505222245 31 296 3.2 4.8 0.00 0.00 0.00 40 1003.9
20260505221742 32 107 1.6 3.2 0.00 0.00 0.00 38 1003.8
20260505221239 32 136 1.6 1.6 0.00 0.00 0.00 39 1003.7
20260505220735 33 120 1.6 1.6 0.00 0.00 0.00 38 1003.8
20260505220233 33 142 1.6 1.6 0.00 0.00 0.00 45 1003.8
20260505215731 33 64 0.0 1.6 0.00 0.00 0.00 44 1003.7
20260505215229 33 132 1.6 1.6 0.00 0.00 0.00 45 1003.7
20260505214726 33 118 0.0 0.0 0.00 0.00 0.00 45 1003.7
20260505214223 33 82 3.2 3.2 0.00 0.00 0.00 44 1004.0
20260505213721 33 123 3.2 3.2 0.00 0.00 0.00 44 1003.8
20260505213218 33 136 1.6 1.6 0.00 0.00 0.00 45 1003.7
20260505212714 33 101 1.6 1.6 0.00 0.00 0.00 44 1003.9
20260505212211 33 162 3.2 3.2 0.00 0.00 0.00 46 1003.9
20260505211708 33 169 1.6 3.2 0.00 0.00 0.00 44 1003.9
20260505211205 34 138 3.2 3.2 0.00 0.00 0.00 46 1004.0
20260505210702 33 126 1.6 3.2 0.00 0.00 0.00 46 1004.2
20260505210159 33 132 1.6 1.6 0.00 0.00 0.00 50 1004.1
20260505205656 32 84 3.2 3.2 0.00 0.00 0.00 46 1004.0
20260505205154 32 172 3.2 3.2 0.00 0.00 0.00 47 1004.2
20260505204650 32 147 3.2 4.8 0.00 0.00 0.00 45 1004.4
20260505204148 32 133 1.6 1.6 0.00 0.00 0.00 48 1004.3
20260505203645 32 239 3.2 4.8 0.00 0.00 0.00 48 1004.1
20260505203142 33 113 3.2 3.2 0.00 0.00 0.00 45 1004.6
20260505202637 33 169 1.6 3.2 0.00 0.00 0.00 48 1004.6
20260505202134 32 125 4.8 4.8 0.00 0.00 0.00 46 1004.8
20260505201631 33 127 4.8 4.8 0.00 0.00 0.00 46 1004.5
20260505201129 32 156 4.8 6.4 0.00 0.00 0.00 48 1004.5
20260505200626 32 187 4.8 4.8 0.00 0.00 0.00 49 1004.5
20260505200123 32 127 1.6 1.6 0.00 0.00 0.00 52 1004.6
20260505195619 31 124 4.8 6.4 0.00 0.00 0.00 50 1004.5
20260505195117 31 212 3.2 3.2 0.00 0.00 0.00 50 1004.5
20260505194614 32 177 3.2 3.2 0.00 0.00 0.00 50 1004.6
20260505194109 32 246 4.8 6.4 0.00 0.00 0.00 49 1004.6
20260505193607 31 120 1.6 1.6 0.00 0.00 0.00 51 1004.7
20260505193104 31 118 3.2 3.2 0.00 0.00 0.00 51 1004.5
20260505192603 31 130 3.2 4.8 0.00 0.00 0.00 50 1004.4
20260505192059 31 122 0.0 1.6 0.00 0.00 0.00 51 1004.7
20260505191557 31 183 1.6 1.6 0.00 0.00 0.00 52 1004.5
20260505191055 30 223 1.6 1.6 0.00 0.00 0.00 53 1004.6
20260505190550 30 156 3.2 3.2 0.00 0.00 0.00 53 1004.6
20260505190046 30 109 1.6 1.6 0.00 0.00 0.00 54 1004.6
20260505185543 30 264 3.2 4.8 0.00 0.00 0.00 54 1004.7
20260505185039 30 137 4.8 4.8 0.00 0.00 0.00 53 1004.7
20260505184536 30 229 6.4 6.4 0.00 0.00 0.00 52 1004.8
20260505184033 31 120 1.6 3.2 0.00 0.00 0.00 52 1005.0
20260505183529 31 223 4.8 4.8 0.00 0.00 0.00 51 1004.8
20260505183027 31 131 0.0 1.6 0.00 0.00 0.00 55 1004.8
20260505182523 30 123 1.6 1.6 0.00 0.00 0.00 56 1004.6
20260505182020 30 187 3.2 4.8 0.00 0.00 0.00 54 1004.6
20260505181517 30 122 1.6 1.6 0.00 0.00 0.00 57 1004.8
20260505181014 30 119 3.2 9.7 0.00 0.00 0.00 54 1005.0
20260505180510 31 337 3.2 4.8 0.00 0.00 0.00 57 1004.7
20260505180008 30 117 1.6 1.6 0.00 0.00 0.00 59 1004.9
20260505175502 30 71 3.2 4.8 0.00 0.00 0.00 58 1004.8
20260505175000 29 126 1.6 1.6 0.00 0.00 0.00 60 1004.7
20260505174457 29 164 3.2 4.8 0.00 0.00 0.00 57 1004.8
20260505173953 30 106 3.2 3.2 0.00 0.00 0.00 58 1004.9
20260505173449 30 112 3.2 4.8 0.00 0.00 0.00 58 1004.9
20260505172946 29 96 3.2 3.2 0.00 0.00 0.00 60 1004.5
20260505172445 28 90 3.2 3.2 0.00 0.00 0.00 61 1004.8
20260505171944 28 114 1.6 3.2 0.00 0.00 0.00 63 1004.8
20260505171441 27 263 3.2 3.2 0.00 0.00 0.00 63 1005.1
20260505170937 27 121 3.2 3.2 0.00 0.00 0.00 63 1004.7
20260505170434 27 250 4.8 6.4 0.00 0.00 0.00 64 1004.8
20260505165930 27 220 3.2 3.2 0.00 0.00 0.00 63 1005.1
20260505165426 27 89 1.6 1.6 0.00 0.00 0.00 66 1004.9
20260505164921 27 102 3.2 3.2 0.00 0.00 0.00 66 1005.0
20260505164418 27 112 1.6 1.6 0.00 0.00 0.00 66 1004.7
20260505163916 26 75 1.6 1.6 0.00 0.00 0.00 67 1004.9
20260505163415 26 266 3.2 4.8 0.00 0.00 0.00 66 1005.0
20260505162914 26 278 3.2 3.2 0.00 0.00 0.00 65 1004.8
20260505162409 26 110 1.6 1.6 0.00 0.00 0.00 67 1004.9
20260505161906 27 60 1.6 1.6 0.00 0.00 0.00 66 1004.9
20260505161403 27 1 3.2 3.2 0.00 0.00 0.00 67 1004.8
20260505160900 26 145 3.2 4.8 0.00 0.00 0.00 67 1004.8
20260505160358 26 113 0.0 0.0 0.00 0.00 0.00 68 1004.7
20260505153337 25 314 3.2 3.2 0.00 0.00 0.00 71 1004.2
20260505152835 25 44 1.6 4.8 0.00 0.00 0.00 72 1004.4
20260505152332 25 96 3.2 4.8 0.00 0.00 0.00 73 1004.3
20260505151831 24 105 1.6 3.2 0.00 0.00 0.00 74 1004.5
20260505151329 24 147 1.6 1.6 0.00 0.00 0.00 74 1004.6
20260505150826 24 137 3.2 4.8 0.00 0.00 0.00 74 1004.6
20260505150323 24 254 8.0 9.7 0.00 0.00 0.00 74 1004.5
20260505140252 22 110 3.2 3.2 0.00 0.00 0.00 79 1004.6
20260505130216 22 7 1.6 4.8 0.00 0.00 0.00 81 1004.2
20260505124706 22 80 3.2 6.4 0.00 0.00 0.00 81 1004.4
20260505124203 22 139 1.6 3.2 0.00 0.00 0.00 81 1004.2
20260505123659 22 130 3.2 4.8 0.00 0.00 0.00 82 1004.1
20260505123156 22 143 1.6 1.6 0.00 0.00 0.00 81 1003.9
20260505122652 21 107 4.8 6.4 0.00 0.00 0.00 81 1003.9
20260505122149 21 167 1.6 1.6 0.00 0.00 0.00 81 1003.9
20260505121646 21 28 6.4 9.7 0.00 0.00 0.00 81 1003.8
20260505121143 21 111 1.6 1.6 0.00 0.00 0.00 81 1003.7
20260505120639 21 85 8.0 11.3 0.00 0.00 0.00 82 1003.7
20260505120135 21 135 1.6 1.6 0.00 0.00 0.00 82 1003.8
20260505115629 21 80 3.2 4.8 0.00 0.00 0.00 81 1003.7
20260505115127 21 109 1.6 3.2 0.00 0.00 0.00 81 1003.6
20260505114624 21 170 6.4 6.4 0.00 0.00 0.00 81 1003.8
20260505114120 21 40 3.2 3.2 0.00 0.00 0.00 81 1003.6
20260505113617 21 161 3.2 3.2 0.00 0.00 0.00 81 1003.5
20260505113114 21 77 1.6 1.6 0.00 0.00 0.00 81 1003.6
20260505112610 21 101 3.2 4.8 0.00 0.00 0.00 82 1003.8
20260505112109 21 95 4.8 4.8 0.00 0.00 0.00 82 1003.7
20260505111607 21 117 1.6 1.6 0.00 0.00 0.00 82 1003.6
20260505111103 21 118 1.6 1.6 0.00 0.00 0.00 82 1003.5
20260505110600 21 119 1.6 1.6 0.00 0.00 0.00 82 1003.5
20260505102033 21 116 1.6 1.6 0.00 0.00 0.00 81 1003.3
20260505101531 21 136 3.2 3.2 0.00 0.00 0.00 81 1003.4
20260505101027 21 75 3.2 4.8 0.00 0.00 0.00 81 1003.5
20260505100524 21 242 3.2 6.4 0.00 0.00 0.00 81 1003.4
20260505100021 21 102 4.8 4.8 0.00 0.00 0.00 81 1003.5
20260505095517 21 39 9.7 12.9 0.00 0.00 0.00 81 1003.6
20260505095014 21 108 3.2 4.8 0.00 0.00 0.00 81 1003.4
20260505094510 21 128 1.6 3.2 0.00 0.00 0.00 81 1003.4
20260505094007 21 45 3.2 6.4 0.00 0.00 0.00 81 1003.6
20260505093503 21 134 3.2 4.8 0.00 0.00 0.00 81 1003.9
20260505093001 21 87 3.2 3.2 0.00 0.00 0.00 81 1003.7
20260505092458 21 117 1.6 3.2 0.00 0.00 0.00 81 1004.0
20260505091955 21 192 3.2 3.2 0.00 0.00 0.00 82 1004.0
20260505091453 21 242 1.6 3.2 0.00 0.00 0.00 82 1004.0
20260505090951 21 124 1.6 3.2 0.00 0.00 0.00 82 1003.9
20260505090449 21 108 1.6 1.6 0.00 0.00 0.00 82 1004.0
20260505085946 21 122 3.2 3.2 0.00 0.00 0.00 82 1003.9
20260505085443 21 289 3.2 4.8 0.00 0.00 0.00 82 1004.1
20260505084942 21 129 1.6 1.6 0.00 0.00 0.00 81 1004.1
20260505084440 21 128 1.6 1.6 0.00 0.00 0.00 81 1003.9
20260505083937 21 207 4.8 6.4 0.00 0.00 0.00 81 1003.8
20260505083434 21 125 1.6 3.2 0.00 0.00 0.00 80 1004.0
20260505082931 21 100 4.8 6.4 0.00 0.00 0.00 80 1004.1
20260505082426 21 60 1.6 1.6 0.00 0.00 0.00 80 1003.8
20260505081924 21 105 1.6 3.2 0.00 0.00 0.00 80 1004.1
20260505081420 21 130 3.2 4.8 0.00 0.00 0.00 79 1003.9
20260505080917 21 89 1.6 3.2 0.00 0.00 0.00 79 1004.0
20260505080413 22 117 0.0 0.0 0.00 0.00 0.00 79 1004.0
20260505075908 22 133 3.2 4.8 0.00 0.00 0.00 78 1004.3
20260505075405 22 159 3.2 3.2 0.00 0.00 0.00 78 1004.3
20260505074903 22 126 3.2 4.8 0.00 0.00 0.00 78 1004.3
20260505074400 22 110 1.6 1.6 0.00 0.00 0.00 78 1004.2
20260505073857 22 171 6.4 11.3 0.00 0.00 0.00 78 1004.5
20260505073355 22 84 4.8 4.8 0.00 0.00 0.00 77 1004.7
20260505072852 22 120 3.2 4.8 0.00 0.00 0.00 77 1004.5
20260505072348 22 102 1.6 1.6 0.00 0.00 0.00 77 1004.7
20260505071844 22 113 1.6 1.6 0.00 0.00 0.00 77 1004.8
20260505071340 22 230 4.8 4.8 0.00 0.00 0.00 76 1004.7
20260505070839 22 58 3.2 4.8 0.00 0.00 0.00 76 1004.7
20260505070335 22 167 4.8 11.3 0.00 0.00 0.00 76 1005.0
20260505065830 22 117 3.2 4.8 0.00 0.00 0.00 75 1005.0
20260505065327 22 127 1.6 3.2 0.00 0.00 0.00 75 1005.1
20260505064824 22 42 3.2 3.2 0.00 0.00 0.00 75 1005.2
20260505064321 22 109 1.6 1.6 0.00 0.00 0.00 74 1005.3
20260505063819 22 44 3.2 3.2 0.00 0.00 0.00 74 1005.2
20260505063315 22 114 1.6 3.2 0.00 0.00 0.00 74 1005.2
20260505062812 22 116 4.8 6.4 0.00 0.00 0.00 74 1005.2
20260505062309 22 161 1.6 3.2 0.00 0.00 0.00 74 1005.2
20260505061806 22 92 6.4 9.7 0.00 0.00 0.00 74 1005.1
20260505061304 22 92 3.2 6.4 0.00 0.00 0.00 74 1005.4
20260505060801 22 146 4.8 4.8 0.00 0.00 0.00 74 1005.4
20260505060258 22 109 1.6 3.2 0.00 0.00 0.00 73 1005.3
20260505055754 22 210 4.8 4.8 0.00 0.00 0.00 72 1005.1
20260505055250 22 354 4.8 4.8 0.00 0.00 0.00 72 1005.1
20260505054747 22 56 1.6 1.6 0.00 0.00 0.00 72 1005.3
20260505054245 22 286 1.6 3.2 0.00 0.00 0.00 72 1005.4
20260505053743 22 141 3.2 3.2 0.00 0.00 0.00 71 1005.5
20260505053240 22 88 4.8 6.4 0.00 0.00 0.00 71 1005.7
20260505052737 22 47 3.2 3.2 0.00 0.00 0.00 71 1005.7
20260505052234 22 132 1.6 1.6 0.00 0.00 0.00 71 1005.7
20260505051731 22 133 0.0 1.6 0.00 0.00 0.00 71 1005.8
20260505051229 22 80 1.6 3.2 0.00 0.00 0.00 70 1005.9
20260505050726 22 107 1.6 1.6 0.00 0.00 0.00 70 1005.9
20260505050224 22 108 1.6 1.6 0.00 0.00 0.00 70 1005.9
20260505041654 23 14 1.6 1.6 0.00 0.00 0.00 68 1005.8
20260505041152 23 113 4.8 4.8 0.00 0.00 0.00 68 1005.7
20260505040648 23 133 4.8 9.7 0.00 0.00 0.00 68 1005.7
20260505040146 23 269 3.2 4.8 0.00 0.00 0.00 68 1005.9
20260505035642 23 120 1.6 1.6 0.00 0.00 0.00 67 1006.0
20260505035138 23 89 4.8 6.4 0.00 0.00 0.00 67 1005.8
20260505034635 23 99 4.8 6.4 0.00 0.00 0.00 67 1005.8
20260505034132 23 106 3.2 3.2 0.00 0.00 0.00 67 1005.6
20260505033628 23 135 4.8 6.4 0.00 0.00 0.00 67 1005.8
20260505033127 23 108 1.6 1.6 0.00 0.00 0.00 67 1005.9
20260505032625 23 167 4.8 6.4 0.00 0.00 0.00 67 1006.0
20260505032121 23 107 3.2 1.6 0.00 0.00 0.00 67 1006.0
20260505031618 23 188 3.2 4.8 0.00 0.00 0.00 67 1005.7
20260505031114 23 130 1.6 1.6 0.00 0.00 0.00 66 1006.0
20260505030611 23 112 3.2 3.2 0.00 0.00 0.00 66 1005.8
20260505030106 23 247 1.6 1.6 0.00 0.00 0.00 66 1005.8
20260505025603 23 10 6.4 6.4 0.00 0.00 0.00 66 1005.8
20260505025102 23 140 1.6 1.6 0.00 0.00 0.00 66 1005.9
20260505024559 23 131 3.2 3.2 0.00 0.00 0.00 66 1005.7
20260505024056 23 52 3.2 6.4 0.00 0.00 0.00 66 1005.8
20260505023553 23 134 4.8 4.8 0.00 0.00 0.00 66 1005.8
20260505023051 23 107 1.6 1.6 0.00 0.00 0.00 66 1006.1
20260505022548 23 124 1.6 1.6 0.00 0.00 0.00 66 1006.0
20260505022045 23 124 1.6 3.2 0.00 0.00 0.00 65 1006.1
20260505021542 23 126 4.8 6.4 0.00 0.00 0.00 65 1005.9
20260505021038 23 71 1.6 3.2 0.00 0.00 0.00 64 1006.0
20260505020538 23 165 1.6 3.2 0.00 0.00 0.00 65 1005.9
20260505020035 23 119 1.6 1.6 0.00 0.00 0.00 65 1005.8
20260505015532 23 102 1.6 1.6 0.00 0.00 0.00 63 1006.0
20260505015029 24 105 1.6 1.6 0.00 0.00 0.00 63 1005.8
20260505014526 24 131 3.2 4.8 0.00 0.00 0.00 62 1005.8
20260505014023 24 129 1.6 1.6 0.00 0.00 0.00 62 1005.9
20260505013520 24 80 3.2 4.8 0.00 0.00 0.00 61 1005.9
20260505013018 24 106 0.0 0.0 0.00 0.00 0.00 61 1005.9
20260505012516 24 98 3.2 4.8 0.00 0.00 0.00 61 1005.8
20260505012012 24 102 1.6 1.6 0.00 0.00 0.00 61 1005.8
20260505011508 24 103 3.2 3.2 0.00 0.00 0.00 61 1005.9
20260505011005 24 113 3.2 4.8 0.00 0.00 0.00 60 1005.9
20260505010501 25 70 1.6 1.6 0.00 0.00 0.00 60 1005.9
20260505005957 25 133 1.6 1.6 0.00 0.00 0.00 60 1005.8
20260505005454 25 112 1.6 1.6 0.00 0.00 0.00 59 1005.7
20260505004952 25 213 3.2 4.8 0.00 0.00 0.00 59 1005.6